Miscellaneous Local Product
Issued by NWS North Platte, NE

Home | Current Version | Previous Version | Text Only | Print | Product List | Glossary On
Versions: 1 2 3 4 5 6 7 8 9 10 11 12 13 14 15 16 17 18 19 20 21 22 23 24 25 26 27 28 29 30 31 32 33 34 35 36 37 38 39 40 41 42 43 44 45 46 47 48 49 50
714
AXUS43 KLBF 250310
MISLBF


WESTERN AND NORTH CENTRAL NEBRASKA HOURLY WEATHER ROUNDUP
NATIONAL WEATHER SERVICE NORTH PLATTE NE
1000 PM CDT SUN SEP 24 2017

NOTE: "FAIR" INDICATES FEW OR NO CLOUDS BELOW 12,000 FEET WITH NO
SIGNIFICANT WEATHER AND/OR OBSTRUCTIONS TO VISIBILITY.

NOTE: STATIONS NOT REPORTING VARIABLES SUCH AS SKY/WEATHER OR
PRESSURE ARE PROVIDED BY RAWS AND APRS NETWORKS AND ARE NOT UNDER
NATIONAL WEATHER SERVICE QUALITY CONTROL.

...OBSERVATIONS IN AND NEAR THE EASTERN PANHANDLE OF NEBRASKA...

CITY           SKY/WX    TMP DP  RH WIND       PRES   REMARKS
PINE RIDGE     CLOUDY    49  45  86 NE5       30.10R
GORDON         CLOUDY    47  43  85 NE8       30.09R
CHADRON        CLOUDY    49  42  77 NE10      30.09R
ALLIANCE       CLOUDY    46  44  93 NE16      30.07R
SIDNEY         LGT RAIN  47  47 100 NE14      30.04R FOG
CRESCENT LAKE    N/A     48  45  91 NE10G20     N/A
$$

...OBSERVATIONS IN NORTHERN NEBRASKA AND FAR SOUTHERN SOUTH DAKOTA...

CITY           SKY/WX    TMP DP  RH WIND       PRES   REMARKS
WINNER         CLOUDY    54  49  83 N8        30.06S
VALENTINE      CLOUDY    52  46  80 N10       30.07R
THEDFORD       LGT RAIN  51  48  89 N13G20    30.05S
AINSWORTH      CLOUDY    51  48  90 N14       30.05R
O`NEILL        LGT RAIN  53  52  95 N10       30.03S
ORD            TSTM      53  51  93 N10       30.01R FOG
BROKEN BOW     RAIN      53  51  93 N17G25    29.99S
HALSEY           N/A     50  49  97 N6          N/A
BUTTE            N/A     52  49  89 N9G18       N/A
CHAMBERS         N/A     54  52  92 CALM        N/A
EWING            N/A     53  51  94 N5          N/A
$$

...OBSERVATIONS IN SOUTHWEST NEBRASKA AND FAR NORTHEAST COLORADO...

CITY           SKY/WX    TMP DP  RH WIND       PRES   REMARKS
WRAY           CLOUDY   N/A N/A N/A NE8       30.00R
HOLYOKE        CLOUDY    54  52  94 NE9       30.01S
IMPERIAL       LGT RAIN  51  49  92 NE15      30.00R
OGALLALA       CLOUDY    53  50  88 NE10      30.02S
NORTH PLATTE   CLOUDY    53  51  93 NE8       30.02S
MCCOOK         CLOUDY    55  55 100 NE12      29.97F
LEXINGTON      LGT RAIN  55  53  91 NE8       30.01S
STAPLETON        N/A     50  49  95 NE3G13      N/A
GOTHENBURG       N/A     54  51  89 N5          N/A
CALLAWAY         N/A     54  53  96 NE7         N/A
$$

...OBSERVATIONS IN CENTRAL LINCOLN COUNTY AREA...

CITY           SKY/WX    TMP DP  RH WIND       PRES   REMARKS
N.P. AIRPORT   CLOUDY    53  51  93 NE8       30.02S
N.P. DOWNTOWN    N/A     52  50  93 NE3         N/A
N.P. SOUTHEAST   N/A     51  49  93 NE3         N/A
N.P. HILLCREST   N/A     52  51  97 NE14        N/A
$$

...SOME OBSERVATIONS FROM AROUND THE REGION...

CITY           SKY/WX    TMP DP  RH WIND       PRES   REMARKS
DENVER         DRIZZLE   48  45  89 NE9       30.03R
LIMON            N/A    N/A N/A N/A MISG        N/A
ASPEN          CLOUDY    39  25  57 CALM      30.09R
LARAMIE        MIX PCPN  32  32 100 N5        30.10R WCI  27
CASPER         CLOUDY    38  36  92 NE9       30.13R WCI  31
CHEYENNE       LGT RAIN  42  41  96 NE9       30.05R VSB 1
SCOTTSBLUFF    CLOUDY    48  44  86 NE15      30.06R
GRAND ISLAND   CLOUDY    57  57 100 NE10      29.99R
OMAHA          CLOUDY    68  63  84 N14       29.93R
SIOUX FALLS    CLOUDY    57  55  93 NW10      29.99R
PIERRE         CLOUDY    50  46  86 N16       30.05F
RAPID CITY     CLOUDY    46  43  87 N9        30.11R
BISMARCK       PTCLDY    47  45  93 NW3       30.10R
KANSAS CITY    CLEAR     75  67  76 S8        29.94R
HILL CITY      RAIN      59  58  96 NE16      29.93S FOG
WICHITA        CLOUDY    77  66  68 SE12      29.90R
DODGE CITY     MOCLDY    71  65  81 S15       29.90R
OKLAHOMA CITY  MOCLDY    74  62  66 SE8       29.90R
DALLAS         MOCLDY    84  65  52 SE12      29.86R
AMARILLO       CLOUDY    69  66  90 SE16      29.93R
$$




USA.gov is the U.S. government's official web portal to all federal, state and local government web resources and services.